Weather History for KPOF - June, 2014

Change the Weather History Date:

Tuesday, June 10, 2014

  Actual Average (KCGI) Record (KCGI)
Temperature  
Mean Temperature 72 °F 74 °F  
Max Temperature 78 °F 85 °F 97 °F (1963)
Min Temperature 66 °F 63 °F 47 °F (1988)
Degree Days  
Heating Degree Days 0 0  
Month to date heating degree days 1  
Since 1 June heating degree days 1  
Since 1 July heating degree days 4387  
Cooling Degree Days 8 9  
Month to date cooling degree days 80  
Year to date cooling degree days 232  
Since 1 June cooling degree days 80  
Growing Degree Days 22 (Base 50)    
Moisture  
Dew Point 65 °F    
Average Humidity 84    
Maximum Humidity 90    
Minimum Humidity 69    
Precipitation  
Precipitation 0.10 in 0.12 in 0.93 in (2003)
Month to date precipitation 1.28  
Year to date precipitation 22.38  
Sea Level Pressure  
Sea Level Pressure 29.71 in    
Wind  
Wind Speed 6 mph (SSE)    
Max Wind Speed 12 mph    
Max Gust Speed -    
Visibility 9 miles    
Events Rain , Thunderstorm    
T = Trace of Precipitation, MM = Missing Value Source: NWS Daily Summary

Daily Weather History Graph

Daily Weather History Graph

Search for Another Location

Airport or City:

Trip Planner

Search our weather history database for the weather conditions in past years. The results will help you decide how hot, cold, wet, or windy it might be!

Date:

Astronomy

Jun. 10, 2014 Rise Set
Actual Time 5:41 AM CDT 8:19 PM CDT
Civil Twilight 5:11 AM CDT 8:50 PM CDT
Nautical Twilight 4:33 AM CDT 9:28 PM CDT
Astronomical Twilight 3:50 AM CDT 10:10 PM CDT
Moon 5:48 PM CDT (6/10) 3:43 AM CDT (6/10)
Length of Visible Light 15h 39m
Length of Day
14h 37m
Waxing Gibbous, 92% of the Moon is Illuminated
Jun 10
Waxing Gibbous
Jun 12
Full
Jun 19
Last Quarter
Jun 27
New
Jul 5
First Quarter

Hourly Weather History & Observations

Time (CDT) Temp. Dew Point Humidity Pressure Visibility Wind Dir Wind Speed Gust Speed Precip Events Conditions
12:35 AM 68.0 °F 64.9 °F 90% 29.75 in 6.0 mi South 6.9 mph - 0.00 in Rain Light Rain
12:42 AM 68.0 °F 64.9 °F 90% 29.75 in 9.0 mi South 6.9 mph - 0.00 in Rain Light Rain
12:45 AM 68.0 °F 64.9 °F 90% 29.75 in 10.0 mi South 5.8 mph - 0.00 in Rain Light Rain
12:53 AM 69.1 °F 64.9 °F 87% 29.73 in 10.0 mi SSE 5.8 mph - 0.00 in Rain Light Rain
1:38 AM 69.1 °F 64.9 °F 87% 29.74 in 10.0 mi SSE 4.6 mph - 0.00 in   Overcast
1:53 AM 69.1 °F 64.9 °F 87% 29.73 in 10.0 mi SSE 5.8 mph - 0.00 in   Overcast
2:18 AM 69.1 °F 64.9 °F 87% 29.74 in 10.0 mi South 5.8 mph - 0.00 in Rain Light Rain
3:53 AM 69.1 °F 64.9 °F 87% 29.71 in 10.0 mi SSE 8.1 mph - 0.00 in Rain Light Rain
4:53 AM 69.1 °F 64.9 °F 87% 29.71 in 10.0 mi South 10.4 mph - 0.00 in   Overcast
5:53 AM 69.1 °F 64.9 °F 87% 29.71 in 10.0 mi South 5.8 mph - N/A   Mostly Cloudy
6:34 AM 69.1 °F 64.9 °F 87% 29.72 in 10.0 mi SSE 6.9 mph - N/A   Overcast
6:41 AM 69.1 °F 64.9 °F 87% 29.72 in 10.0 mi SSE 6.9 mph - N/A   Overcast
6:53 AM 69.1 °F 64.9 °F 87% 29.71 in 10.0 mi SSE 6.9 mph - N/A   Overcast
7:00 AM 69.1 °F 64.9 °F 87% 29.72 in 3.0 mi South 5.8 mph - 0.01 in Rain Rain
7:02 AM 69.1 °F 64.9 °F 87% 29.72 in 2.5 mi South 6.9 mph - 0.02 in Rain Rain
7:14 AM 69.1 °F 64.9 °F 87% 29.72 in 7.0 mi South 10.4 mph - 0.03 in Rain Light Rain
7:43 AM 69.1 °F 64.9 °F 87% 29.74 in 10.0 mi SSE 11.5 mph - 0.03 in   Overcast
7:53 AM 69.1 °F 64.9 °F 87% 29.73 in 10.0 mi South 6.9 mph - 0.03 in   Overcast
8:14 AM 70.0 °F 64.9 °F 84% 29.74 in 10.0 mi South 9.2 mph - N/A   Overcast
8:53 AM 70.0 °F 64.9 °F 84% 29.74 in 10.0 mi South 9.2 mph - N/A   Overcast
9:10 AM 70.0 °F 64.9 °F 84% 29.75 in 10.0 mi South 8.1 mph - N/A   Overcast
9:48 AM 71.6 °F 64.4 °F 78% 29.75 in 10.0 mi South 11.5 mph - N/A   Overcast
10:53 AM 72.0 °F 64.0 °F 76% 29.73 in 10.0 mi South 9.2 mph - N/A   Overcast
12:43 PM 72.0 °F 66.9 °F 84% 29.72 in 10.0 mi SSE 9.2 mph - 0.03 in   Overcast
12:53 PM 72.0 °F 66.0 °F 81% 29.71 in 10.0 mi SSE 8.1 mph - 0.03 in Rain Light Rain
1:11 PM 71.1 °F 66.0 °F 84% 29.71 in 10.0 mi SE 10.4 mph - 0.00 in Rain Light Rain
2:04 PM 75.0 °F 66.0 °F 73% 29.68 in 10.0 mi SE 9.2 mph - N/A   Scattered Clouds
2:53 PM 77.0 °F 66.0 °F 69% 29.68 in 10.0 mi Variable 4.6 mph - N/A   Scattered Clouds
3:19 PM 75.2 °F 64.4 °F 69% 29.68 in 10.0 mi SW 8.1 mph - N/A Thunderstorm Clear
3:34 PM 75.0 °F 64.9 °F 71% 29.69 in 10.0 mi WSW 5.8 mph - N/A Thunderstorm Thunderstorm
3:50 PM 69.8 °F 64.4 °F 83% 29.69 in 2.5 mi West 9.2 mph - 0.02 in Rain , Thunderstorm Rain
3:58 PM 68.0 °F 64.0 °F 87% 29.69 in 3.0 mi SSW 6.9 mph - 0.01 in Rain Light Rain
4:02 PM 68.0 °F 64.4 °F 88% 29.69 in 6.0 mi West 4.6 mph - N/A Rain , Thunderstorm Light Thunderstorms and Rain
4:33 PM 70.0 °F 64.0 °F 81% 29.70 in 10.0 mi NE 4.6 mph - 0.01 in Thunderstorm Overcast
4:45 PM 70.0 °F 64.0 °F 81% 29.70 in 10.0 mi East 5.8 mph - 0.01 in   Overcast
4:53 PM 72.0 °F 64.9 °F 78% 29.69 in 10.0 mi ESE 5.8 mph - 0.01 in   Mostly Cloudy
5:53 PM 73.0 °F 64.9 °F 76% 29.68 in 10.0 mi ESE 4.6 mph - N/A   Mostly Cloudy
6:04 PM 72.0 °F 64.9 °F 78% 29.69 in 10.0 mi Calm Calm - N/A Thunderstorm Mostly Cloudy
6:28 PM 72.0 °F 64.9 °F 78% 29.69 in 10.0 mi East 3.5 mph - N/A   Overcast
6:53 PM 71.1 °F 66.0 °F 84% 29.69 in 10.0 mi SE 3.5 mph - N/A   Mostly Cloudy
7:53 PM 70.0 °F 66.0 °F 87% 29.68 in 7.0 mi Calm Calm - 0.00 in Rain Light Rain
8:29 PM 70.0 °F 66.0 °F 87% 29.69 in 10.0 mi Calm Calm - 0.03 in Rain Light Rain
8:41 PM 69.1 °F 66.0 °F 90% 29.69 in 10.0 mi North 4.6 mph - 0.03 in Rain Light Rain
8:53 PM 70.0 °F 66.0 °F 87% 29.68 in 10.0 mi North 3.5 mph - 0.03 in   Overcast
9:02 PM 70.0 °F 66.0 °F 87% 29.69 in 10.0 mi North 4.6 mph - N/A   Overcast
9:17 PM 70.0 °F 66.0 °F 87% 29.69 in 10.0 mi North 3.5 mph - N/A   Overcast
9:39 PM 70.0 °F 66.0 °F 87% 29.70 in 10.0 mi Calm Calm - N/A   Overcast
10:00 PM 70.0 °F 66.0 °F 87% 29.70 in 10.0 mi Calm Calm - N/A   Mostly Cloudy
10:09 PM 69.1 °F 64.9 °F 87% 29.70 in 10.0 mi East 4.6 mph - N/A   Scattered Clouds
10:53 PM 68.0 °F 64.9 °F 90% 29.69 in 10.0 mi Calm Calm - N/A   Mostly Cloudy
11:53 PM 66.9 °F 64.0 °F 90% 29.70 in 10.0 mi Calm Calm - N/A   Mostly Cloudy